Tracking 21045 objects as of 4-Aug-2020
HD Live streaming from Space Station
objects crossing your sky now

ARIANE 1 DEB

Track ARIANE 1 DEB now!
10-day predictions


NORAD ID: 39106
Int'l Code: 1986-019VU
Perigee: 790.0 km
Apogee: 885.0 km
Inclination: 98.6 °
Period: 101.5 minutes
Semi major axis: 7208 km
RCS: 0.0054 m2 (small)
Launch date: February 22, 1986
Source: France (FR)
Launch site: FRENCH GUIANA (FRGUI)

Note: This is SATELLITE DEBRIS
aabbcc
Your satellite tracking list
Your tracking list is empty




NASA's NSSDC Master Catalog

Two Line Element Set (TLE):
1 39106U 86019VU  20211.92970029 -.00000007 +00000-0 +16674-4 0  9993
2 39106 098.6481 280.4829 0065883 142.9871 217.5876 14.18515750367078
Source of the keplerian elements: AFSPC